Вернуться в каталог

COSMOS 761

АктивенВоенныеLEO
NORAD 8285·PAYLOAD·🇷🇺 Russia

Запущен Sep 17, 1975 с Plesetsk Cosmodrome

Loading…

Ближайшие Пролёты (ближайшие 24 часа)

TLE

СвежийSource: Space-Track

Эпоха: Sep 14, 2026, 12:06 UTC

1 08285U 75086A   26257.50429184 -.00000020  00000-0 -22946-4 0  9995
2 08285  74.0061 266.1144 0053376 292.8660 226.9521 12.55818405337711

Отслеживайте COSMOS 761 в реальном времени с AllMySat

Download on the App Store